Tracking 29892 objects as of 21-Nov-2024
HD Live streaming from Space Station
objects crossing your sky now

STARLINK-30124

Track STARLINK-30124 now!
10-day predictions
STARLINK-30124 is classified as:


NORAD ID: 56690
Int'l Code: 2023-067C
Perigee: 564.9 km
Apogee: 567.8 km
Inclination: 43.0 °
Period: 95.8 minutes
Semi major axis: 6937 km
RCS: Unknown
Launch date: May 19, 2023
Source: United States (US)
Launch site: AIR FORCE EASTERN TEST RANGE (AFETR)
Your satellite tracking list
Your tracking list is empty




NASA's NSSDC Master Catalog

Two Line Element Set (TLE):
1 56690U 23067C   24325.02472764  .00012671  00000-0  95208-3 0  9996
2 56690  43.0042 334.0225 0002099 262.0680  97.9924 15.02507559 84252
Source of the keplerian elements: AFSPC